[[{"header":{"parameterUnit":"m.s-1","parameterCategory":1,"la1":30.2991,"la2":30.254,"lo1":-89.0895,"lo2":-89.0444,"dy":0.0017,"dx":0.0017,"nx":28,"ny":28,"refTime":"2023-07-28T09:00:00:Z","depth":0,"parameterNumber":2,"parameterNumberName":"U-component_of_WINDS"},"data":[0,0,0,0,0,0,0,0,0,0,0,0,0,0,0,0,0,0,0,0,0,0,0,0,0,0,0,0,0,0,0,0,0,0,0,0,0,0,0,0,0,0,0,0,0,0,0,0,0,0,0,0,0,0,0,0,0,0,0.9789,0.979,0,0.9814,0.9815,0.9815,0.9808,0.9807,0.9807,0.9806,0.9831,0.9832,0.9833,0,0,0,0,0,0,0,0,0,0,0,0,0,0.9733,0.9735,0.9789,0.979,0.979,0.9814,0.9815,0.9815,0.9808,0.9807,0.9806,0.9806,0.983,0.9832,0.9833,0,0,0,0,0,0,0,0,0,0,0,0,0,0.9758,0.9735,0.9789,0.9789,0.9789,0.9814,0.9815,0.9815,0.9808,0.9807,0.9806,0.9806,0.983,0.9832,0.9833,0.9859,0,0,0.9839,0.9839,0,0,0,0,0,0,0,0,0.9757,0.976,0.9789,0.9789,0.979,0.9807,0.9804,0.983,0.9808,0.9801,0.9806,0.9805,0.9823,0.9826,0.9832,0.9861,0.9862,0.9839,0.984,0.984,0.9841,0,0,0,0,0,0,0,0.9755,0.9759,0.9799,0.9789,0.979,0.9787,0.979,0.9809,0.9816,0.9801,0.9801,0.9804,0.9823,0.983,0.9833,0.9862,0.9839,0.984,0.9841,0.9842,0.9912,0.9913,0,0,0,0,0,0,0.9753,0.9758,0.9798,0.98,0.9771,0.9789,0.9792,0.9802,0.9816,0.9817,0.9805,0.9804,0.9828,0.9831,0.9833,0.9864,0.984,0.9842,0.9843,0.9911,0.9912,0.9913,0,0,0,0,0,0,0.9752,0.9757,0.9797,0.9779,0.9784,0.9791,0.9802,0.9803,0.981,0.9818,0.982,0.981,0.9827,0.9831,0.9853,0.9864,0.9843,0.9844,0.991,0.9911,0.9912,0.9925,0,0,0,0,0,0,0.975,0.9757,0.9767,0.9779,0.9785,0.9817,0.9803,0.9804,0.9813,0.9812,0.9824,0.9825,0.9827,0.985,0.9854,0.9866,0.9846,0.9909,0.9911,0.9912,0.9923,0.9926,0.9929,0,0,0,0,0,0.9748,0.9769,0.9767,0.9772,0.9798,0.9817,0.9821,0.9822,0.9814,0.9824,0.9829,0.9825,0.9863,0.9853,0.9857,0.987,0.9908,0.991,0.9912,0.9922,0.9926,0.9929,0,0,0,0,0,0,0.9758,0.9771,0.9769,0.9794,0.9805,0.9816,0.9829,0.9826,0.9839,0.9837,0.9839,0.9841,0.9863,0.9869,0.9857,0.9895,0.9884,0.9887,0.989,0.9894,0.9897,0.9894,0.9847,0,0,0,0,0,0.9763,0.9779,0.9789,0.981,0.9816,0.9821,0.983,0.983,0.9841,0.9845,0.9852,0.9863,0.9877,0.9886,0.9899,0.9925,0.9927,0.9936,0.9938,0.9941,0.9943,0.9955,0.9959,0.9919,0.9919,0.9919,0,0,0.9774,0.9783,0.9792,0.9812,0.9821,0.9836,0.9825,0.9842,0.9853,0.9848,0.9868,0.9874,0.9886,0.9909,0.9919,0.9914,0.9954,0.9943,0.9945,0.9945,0.9957,0.9961,0.9964,0.992,0.992,0.992,0,0,0.98,0.981,0.9828,0.9836,0.9849,0.9852,0.9857,0.9868,0.9872,0.9893,0.9889,0.9902,0.9927,0.9935,0.9942,0.9971,0.9967,0.9976,0.999,1.0002,1.0005,1.0008,1.0017,1.002,0.9978,0.9978,0.9978,0,0.9812,0.9835,0.9837,0.9854,0.9862,0.9859,0.9877,0.9885,0.9901,0.9907,0.9901,0.9931,0.9939,0.9963,0.997,0.9977,0.9981,0.9974,1.0004,1.0007,1.001,1.0018,1.0022,0.9979,0.9979,0.9979,0.9979,0,0.9847,0.9863,0.9876,0.9892,0.9902,0.9919,0.9924,0.9934,0.9934,0.9938,0.9958,0.9968,0.9982,0.9989,0.9989,1.0013,1.0009,1.0004,0.9993,1.0014,1.0022,1.0026,0.998,0.998,0.998,0.998,0,0,0.988,0.9896,0.9901,0.9908,0.9921,0.9933,0.995,0.9965,0.9973,0.9984,0.9998,1.0018,1.0014,1.0022,1.0023,1.0034,1.0055,1.0027,1.0027,1.003,1.008,1.0083,1.0087,1.0053,1.0054,1.0054,1.0079,0,0.9906,0.9936,0.9938,0.9965,0.9979,0.9976,0.9991,1.0,1.0005,1.0017,1.0022,1.0036,1.0029,1.0034,1.0045,1.005,1.0065,1.0048,1.0064,1.0065,1.006,1.0091,1.0094,1.0117,1.0082,1.0083,1.0083,0,0.9941,0.9953,0.998,0.9991,0.9997,1.001,1.0023,1.0036,1.0046,1.0049,1.0058,1.0057,1.0074,1.0064,1.0086,1.0075,1.0082,1.0085,1.0086,1.0086,1.0074,1.0091,1.0125,1.0128,1.0089,1.0088,1.0088,0,0.9959,0.9983,1.0002,1.0008,1.0022,1.0031,1.0037,1.0047,1.0055,1.0067,1.0072,1.0086,1.0093,1.0103,1.0106,1.0098,1.0128,1.0118,1.0129,1.0129,1.0134,1.0133,1.0168,1.0141,1.0141,1.0141,1.0141,0,0.9987,1.0004,1.001,1.0022,1.004,1.0043,1.0061,1.0067,1.0076,1.0088,1.0087,1.0099,1.0103,1.0115,1.0117,1.0135,1.0138,1.014,1.014,1.0139,1.0139,1.0142,1.014,1.0142,1.0142,1.0142,1.0142,0,1.001,1.0016,1.0036,1.0047,1.0051,1.0063,1.0073,1.0084,1.0088,1.0104,1.0108,1.0114,1.0129,1.0133,1.015,1.0152,1.0172,1.0171,1.0168,1.0167,1.0178,1.0176,1.0215,1.0219,1.0191,1.0192,1.0192,0,1.0027,1.004,1.0052,1.006,1.0067,1.008,1.0089,1.0092,1.0101,1.0114,1.0123,1.0137,1.0148,1.0171,1.0177,1.019,1.0189,1.0202,1.0191,1.0189,1.0187,1.0186,1.0187,1.0203,1.0204,1.0204,1.0204,0,1.0056,1.0057,1.007,1.0083,1.0093,1.0104,1.0114,1.0121,1.0126,1.0136,1.015,1.0159,1.0176,1.019,1.0203,1.0209,1.0207,1.0208,1.0211,1.0209,1.0206,1.0206,1.0172,1.0206,1.0206,1.0206,1.0206,1.0206,1.0075,1.0085,1.0096,1.0109,1.0117,1.0127,1.0137,1.0143,1.0155,1.017,1.0171,1.0186,1.0197,1.0214,1.0221,1.0232,1.0229,1.0233,1.0234,1.0235,1.0235,1.0205,1.0235,1.0235,1.0235,1.0235,1.0235,0,1.0102,1.0108,1.0121,1.0135,1.0146,1.0144,1.0155,1.0164,1.0177,1.0187,1.0198,1.0214,1.0227,1.0235,1.0248,1.0256,1.0255,1.0259,1.0257,1.0258,1.0238,1.0234,1.0259,1.0259,1.0259,1.0259,1.0259,1.0259,1.0117,1.0134,1.0138,1.0159,1.0165,1.018,1.0187,1.0195,1.0203,1.0221,1.0232,1.0237,1.0245,1.0259,1.0271,1.0273,1.0277,1.0281,1.0282,1.0263,1.026,1.0258,1.0253,1.0282,1.0282,1.0301,1.0301,1.0301]},{"header":{"parameterUnit":"m.s-1","parameterCategory":1,"la1":30.2991,"la2":30.254,"lo1":-89.0895,"lo2":-89.0444,"dy":0.0017,"dx":0.0017,"nx":28,"ny":28,"refTime":"2023-07-28T09:00:00:Z","depth":0,"parameterNumber":3,"parameterNumberName":"V-component_of_WINDS"},"data":[0,0,0,0,0,0,0,0,0,0,0,0,0,0,0,0,0,0,0,0,0,0,0,0,0,0,0,0,0,0,0,0,0,0,0,0,0,0,0,0,0,0,0,0,0,0,0,0,0,0,0,0,0,0,0,0,0,0,0.8939,0.894,0,0.8997,0.8997,0.8998,0.8976,0.8975,0.8973,0.8972,0.903,0.9033,0.9036,0,0,0,0,0,0,0,0,0,0,0,0,0,0.8809,0.8811,0.8939,0.894,0.8941,0.8997,0.8997,0.8998,0.8976,0.8975,0.8973,0.8971,0.9029,0.9033,0.9036,0,0,0,0,0,0,0,0,0,0,0,0,0,0.8866,0.8812,0.8939,0.8936,0.8937,0.8996,0.8997,0.8998,0.8976,0.8974,0.8972,0.8971,0.9028,0.9032,0.9037,0.9102,0,0,0.9049,0.9051,0,0,0,0,0,0,0,0,0.8863,0.8871,0.8936,0.8937,0.8937,0.8977,0.8973,0.9033,0.8977,0.8961,0.8972,0.897,0.9014,0.9019,0.9035,0.9105,0.9107,0.905,0.9052,0.9054,0.9055,0,0,0,0,0,0,0,0.8859,0.8868,0.8962,0.8937,0.8938,0.8932,0.8938,0.8984,0.8998,0.8963,0.8961,0.8968,0.9014,0.9031,0.9036,0.9108,0.905,0.9053,0.9056,0.9057,0.9233,0.9235,0,0,0,0,0,0,0.8855,0.8865,0.896,0.8964,0.8894,0.8936,0.8942,0.8966,0.8998,0.9001,0.897,0.8967,0.9024,0.9031,0.9038,0.9115,0.9054,0.9058,0.906,0.9231,0.9233,0.9236,0,0,0,0,0,0,0.8852,0.8863,0.8958,0.8914,0.8925,0.894,0.8967,0.8968,0.8985,0.9003,0.9005,0.8984,0.9023,0.9032,0.9086,0.9117,0.906,0.9064,0.9228,0.9232,0.9235,0.9272,0,0,0,0,0,0,0.8848,0.8863,0.8888,0.8915,0.8928,0.9006,0.8969,0.8971,0.8992,0.8989,0.9017,0.902,0.9022,0.908,0.909,0.9122,0.9067,0.9226,0.923,0.9234,0.9268,0.9276,0.9283,0,0,0,0,0,0.8844,0.8897,0.889,0.8901,0.896,0.9008,0.9015,0.9017,0.8995,0.902,0.9032,0.9019,0.9112,0.9085,0.9097,0.913,0.9224,0.9229,0.9233,0.9265,0.9274,0.9283,0,0,0,0,0,0,0.8874,0.89,0.8893,0.8956,0.898,0.9004,0.9036,0.9027,0.9058,0.9053,0.9054,0.906,0.9116,0.9128,0.9098,0.9194,0.9164,0.9172,0.9184,0.9194,0.9201,0.9197,0.907,0,0,0,0,0,0.8888,0.8925,0.8945,0.8999,0.9011,0.9022,0.9042,0.9041,0.9066,0.9076,0.9091,0.9115,0.915,0.9172,0.9205,0.9269,0.9275,0.9298,0.9305,0.9311,0.9318,0.9351,0.9361,0.9252,0.9252,0.9251,0,0,0.8918,0.8936,0.896,0.9006,0.9024,0.9061,0.903,0.9071,0.9099,0.9082,0.9134,0.9146,0.9172,0.9231,0.9258,0.9244,0.9349,0.9318,0.9322,0.9325,0.9357,0.9368,0.9377,0.9255,0.9254,0.9254,0,0,0.899,0.9008,0.9054,0.9073,0.9101,0.9107,0.9118,0.9143,0.915,0.9202,0.919,0.9222,0.9282,0.9301,0.9318,0.9396,0.9385,0.9406,0.9445,0.9478,0.9487,0.9494,0.9521,0.9531,0.9412,0.9413,0.9413,0,0.9023,0.9079,0.9079,0.9121,0.9141,0.9127,0.9173,0.9191,0.9228,0.9242,0.9225,0.9298,0.9315,0.9378,0.9397,0.9412,0.9423,0.9403,0.9485,0.9493,0.95,0.9526,0.9536,0.9415,0.9415,0.9414,0.9414,0,0.9118,0.9157,0.919,0.9226,0.925,0.9293,0.9299,0.9323,0.932,0.9327,0.9379,0.9399,0.9435,0.9449,0.9447,0.9511,0.9501,0.9485,0.9455,0.9513,0.9537,0.9547,0.9418,0.9418,0.9417,0.9416,0,0,0.9212,0.9246,0.9258,0.9274,0.9302,0.9332,0.9374,0.9409,0.9429,0.9455,0.9489,0.9539,0.9524,0.9544,0.9543,0.9571,0.963,0.9551,0.9552,0.9564,0.9701,0.9712,0.9724,0.9622,0.9624,0.9626,0.9698,0,0.9287,0.9361,0.9361,0.943,0.9464,0.9451,0.9487,0.9508,0.9516,0.9546,0.9555,0.959,0.9567,0.9579,0.9607,0.9617,0.9657,0.9612,0.9654,0.9656,0.9648,0.9736,0.975,0.9817,0.9708,0.9709,0.971,0,0.9383,0.9411,0.9483,0.9505,0.9519,0.9553,0.9583,0.9613,0.9636,0.9639,0.9661,0.9655,0.9697,0.9665,0.9722,0.9691,0.9708,0.9715,0.9718,0.9722,0.9687,0.9742,0.9839,0.9848,0.9725,0.9724,0.9723,0,0.9444,0.95,0.9549,0.9563,0.959,0.9613,0.9625,0.9646,0.9667,0.9693,0.9706,0.9738,0.9755,0.9779,0.9781,0.9758,0.9838,0.9807,0.9842,0.9842,0.986,0.9858,0.9959,0.9871,0.9871,0.9871,0.9871,0,0.9527,0.9571,0.9576,0.9607,0.9656,0.9655,0.9703,0.9713,0.9732,0.9763,0.9753,0.9783,0.9784,0.9814,0.9816,0.9863,0.9871,0.9874,0.9874,0.9875,0.9874,0.9886,0.9881,0.9874,0.9873,0.9872,0.9872,0,0.9603,0.9609,0.9662,0.9682,0.9689,0.9723,0.9741,0.9769,0.9775,0.9815,0.9825,0.9834,0.9869,0.9874,0.9915,0.9916,0.9971,0.9966,0.9964,0.9963,0.9997,0.9993,1.0109,1.0124,1.0026,1.0027,1.0028,0,0.9655,0.9689,0.9713,0.9733,0.9746,0.9779,0.98,0.98,0.9821,0.9849,0.9874,0.9908,0.9935,0.9991,1.0001,1.0032,1.0027,1.0066,1.0032,1.0031,1.0027,1.0025,1.0028,1.0072,1.0073,1.0074,1.0075,0,0.9747,0.9748,0.9778,0.9808,0.9832,0.9856,0.9879,0.9896,0.9899,0.9923,0.9958,0.9979,1.002,1.0054,1.0083,1.0095,1.0086,1.0085,1.0095,1.0096,1.0093,1.0094,0.9981,1.0083,1.0082,1.0081,1.0081,1.0081,0.9813,0.9841,0.9862,0.9895,0.9912,0.9932,0.996,0.9969,0.9998,1.0032,1.003,1.0068,1.0089,1.0128,1.0142,1.0172,1.0159,1.0173,1.0176,1.018,1.0183,1.0088,1.0177,1.0177,1.0177,1.0176,1.0176,0,0.9903,0.9916,0.9946,0.9977,1.0003,0.9991,1.0015,1.0037,1.0071,1.0091,1.0117,1.0157,1.0188,1.0201,1.0231,1.0253,1.0249,1.0261,1.0259,1.0262,1.0193,1.0181,1.0263,1.0263,1.0263,1.0263,1.0263,1.0263,0.9954,1.0001,1.0004,1.0058,1.007,1.0108,1.0122,1.0141,1.0157,1.0201,1.0228,1.0235,1.0252,1.0283,1.0311,1.0314,1.0326,1.0339,1.034,1.0276,1.0267,1.0258,1.0247,1.0342,1.0342,1.0406,1.0407,1.0408]}]]